Total_Precipitation_Accumulation
-0.16 -0.39 -0.51 -0.51 -0.51 -0.51 -0.48 -0.41 -0.36 -0.36 -0.32 -0.38 -0.36 -0.36 -0.38 -0.34 -0.27 -0.27 -0.20 -0.18 -0.18 -0.12 -0.09 -0.02 -0.02 0.07 0.09 0.08 0.20 0.20 0.41 0.60 0.91 0.91 1.04 1.08 1.24 1.24 1.38 1.36 1.36 1.96 1.99 2.01 2.01 1.66 1.21 1.01 1.01 0.76 0.71 0.71 0.69 0.69 0.39 0.31 0.31 0.24 0.18 0.12 0.12 0.10 0.09 0.09 0.09 0.09 0.07 0.05 0.03 0.03 0.02 0.00 0.00 0.00 0.00 0.00 0.00 0.00 0.00 0.00 0.00 0.00 0.00 0.00 0.00 0.00
-0.09 -0.16 -0.51 -0.52 -0.52 -0.47 -0.45 -0.40 -0.36 -0.36 -0.32 -0.32 -0.32 -0.32 -0.35 -0.39 -0.37 -0.37 -0.33 -0.22 -0.22 -0.17 -0.12 -0.07 -0.07 0.03 0.09 0.12 0.11 0.11 0.21 0.41 0.81 0.81 1.00 1.09 1.25 1.25 1.34 1.34 1.34 1.42 1.70 1.97 1.97 1.90 1.35 1.14 1.14 0.87 0.87 0.82 0.76 0.76 0.57 0.36 0.36 0.28 0.24 0.13 0.13 0.11 0.10 0.11 0.11 0.10 0.07 0.05 0.03 0.03 0.02 0.00 0.00 0.00 0.00 0.00 0.00 0.00 0.00 0.00 0.00 0.00 0.00 0.00 0.00 0.00
-0.14 -0.19 -0.31 -0.52 -0.52 -0.47 -0.42 -0.41 -0.40 -0.40 -0.32 -0.27 -0.29 -0.29 -0.32 -0.36 -0.37 -0.37 -0.28 -0.21 -0.21 -0.17 -0.16 -0.14 -0.14 -0.02 0.10 0.16 0.17 0.17 0.34 0.40 0.48 0.48 0.68 0.78 1.25 1.25 1.37 1.38 1.38 1.35 1.56 1.70 1.70 2.04 1.91 1.54 1.54 1.28 0.92 0.82 0.76 0.76 0.52 0.32 0.32 0.27 0.22 0.19 0.19 0.16 0.13 0.12 0.12 0.11 0.09 0.06 0.03 0.03 0.01 0.00 0.00 0.00 0.00 0.00 0.00 0.00 0.00 0.00 0.00 0.00 0.00 0.00 0.00 0.00
-0.19 -0.24 -0.26 -0.33 -0.33 -0.44 -0.37 -0.39 -0.49 -0.49 -0.43 -0.33 -0.40 -0.40 -0.33 -0.30 -0.31 -0.31 -0.21 -0.18 -0.18 -0.17 -0.17 -0.13 -0.13 -0.10 -0.02 0.25 0.36 0.36 0.41 0.44 0.48 0.48 0.60 0.70 0.98 0.98 1.27 1.36 1.36 1.30 1.40 1.45 1.45 1.67 1.81 1.42 1.42 1.22 0.92 0.82 0.74 0.74 0.50 0.32 0.32 0.26 0.23 0.19 0.19 0.19 0.16 0.15 0.15 0.16 0.12 0.10 0.04 0.04 0.01 0.00 0.00 0.00 0.00 0.00 0.00 0.00 0.00 0.00 0.00 0.00 0.00 0.00 0.00 0.00
-0.24 -0.27 -0.25 -0.28 -0.28 -0.45 -0.45 -0.44 -0.53 -0.53 -0.56 -0.48 -0.47 -0.47 -0.39 -0.31 -0.26 -0.26 -0.21 -0.17 -0.17 -0.19 -0.18 -0.12 -0.12 -0.10 0.02 0.21 0.36 0.36 0.46 0.53 0.54 0.54 0.58 0.71 0.89 0.89 1.16 1.17 1.17 1.25 1.27 1.27 1.27 1.39 1.56 1.24 1.24 1.04 0.74 0.68 0.64 0.64 0.60 0.48 0.48 0.33 0.30 0.26 0.26 0.19 0.22 0.20 0.20 0.19 0.12 0.08 0.01 0.01 0.00 0.00 0.00 0.00 0.00 0.00 0.00 0.00 0.00 0.00 0.00 0.00 0.00 0.00 0.00 0.00
-0.16 -0.25 -0.24 -0.30 -0.30 -0.38 -0.46 -0.48 -0.49 -0.49 -0.50 -0.55 -0.47 -0.47 -0.42 -0.34 -0.33 -0.33 -0.28 -0.20 -0.20 -0.19 -0.22 -0.12 -0.12 -0.07 0.05 0.24 0.43 0.43 0.63 0.78 0.71 0.71 0.60 0.71 0.85 0.85 0.94 0.97 0.97 1.20 1.26 1.35 1.35 1.29 1.27 1.22 1.22 1.15 0.62 0.57 0.59 0.59 0.58 0.44 0.44 0.35 0.34 0.30 0.30 0.27 0.30 0.26 0.26 0.24 0.19 0.05 0.00 0.00 0.00 0.00 0.00 0.00 0.00 0.00 0.00 0.00 0.00 0.00 0.00 0.00 0.00 0.00 0.00 0.00
-0.14 -0.17 -0.18 -0.27 -0.27 -0.31 -0.39 -0.39 -0.39 -0.39 -0.43 -0.49 -0.43 -0.43 -0.40 -0.36 -0.36 -0.36 -0.30 -0.19 -0.19 -0.22 -0.22 -0.18 -0.18 -0.13 -0.06 0.21 0.40 0.40 0.68 0.82 0.86 0.86 0.72 0.80 0.75 0.75 0.86 0.97 0.97 1.15 1.37 1.31 1.31 1.26 1.21 1.18 1.18 1.14 0.83 0.62 0.56 0.56 0.62 0.40 0.40 0.35 0.34 0.32 0.32 0.31 0.29 0.26 0.26 0.21 0.15 0.10 0.02 0.02 0.00 0.00 0.00 0.00 0.00 0.00 0.00 0.00 0.00 0.00 0.00 0.00 0.00 0.00 0.00 0.00
-0.17 -0.19 -0.20 -0.21 -0.21 -0.26 -0.27 -0.34 -0.28 -0.28 -0.13 -0.22 -0.20 -0.20 -0.33 -0.38 -0.23 -0.23 -0.22 -0.24 -0.24 -0.21 -0.25 -0.21 -0.21 -0.17 -0.08 0.08 0.26 0.26 0.28 0.33 0.55 0.55 0.88 1.14 1.06 1.06 1.20 1.16 1.16 1.17 1.08 0.97 0.97 0.99 1.07 1.00 1.00 1.07 1.02 0.83 0.68 0.68 0.68 0.69 0.69 0.43 0.31 0.32 0.32 0.30 0.26 0.23 0.23 0.13 0.11 0.09 0.04 0.04 0.01 0.00 0.00 0.00 0.00 0.00 0.00 0.00 0.00 0.00 0.00 0.00 0.00 0.00 0.00 0.00
-0.13 -0.17 -0.15 -0.19 -0.19 -0.23 -0.30 -0.33 -0.34 -0.34 -0.24 0.20 0.02 0.02 -0.18 -0.26 -0.19 -0.19 -0.00 -0.12 -0.12 -0.24 -0.25 -0.24 -0.24 -0.17 -0.10 0.05 0.23 0.23 0.30 0.34 0.47 0.47 0.70 0.82 1.00 1.00 1.02 1.03 1.03 1.10 1.07 1.00 1.00 0.96 0.98 0.93 0.93 0.95 0.97 0.97 0.87 0.87 0.71 0.67 0.67 0.70 0.29 0.28 0.28 0.27 0.19 0.17 0.17 0.10 0.08 0.07 0.02 0.02 0.01 0.00 0.00 0.00 0.00 0.00 0.00 0.00 0.00 0.00 0.00 0.00 0.00 0.00 0.00 0.00
-0.14 -0.11 -0.10 -0.19 -0.19 -0.19 -0.25 -0.28 -0.30 -0.30 -0.28 0.13 0.15 0.15 0.24 -0.20 -0.24 -0.24 -0.12 0.02 0.02 -0.17 -0.18 -0.23 -0.23 -0.19 -0.15 -0.11 0.01 0.01 0.29 0.36 0.45 0.45 0.58 0.75 0.90 0.90 0.87 0.86 0.86 0.87 0.99 0.97 0.97 0.98 0.94 0.91 0.91 0.87 0.90 0.86 0.83 0.83 0.64 0.61 0.61 0.65 0.35 0.26 0.26 0.24 0.17 0.14 0.14 0.09 0.05 0.04 0.01 0.01 0.00 0.00 0.00 0.00 0.00 0.00 0.00 0.00 0.00 0.00 0.00 0.00 0.00 0.00 0.00 0.00
-0.13 -0.11 -0.09 -0.14 -0.14 -0.20 -0.21 -0.22 -0.25 -0.25 -0.24 -0.05 -0.12 -0.12 -0.00 0.63 0.15 0.15 -0.22 -0.03 -0.03 0.04 -0.05 -0.17 -0.17 -0.18 -0.15 -0.11 0.01 0.01 0.11 0.18 0.35 0.35 0.65 0.77 0.87 0.87 0.87 0.89 0.89 0.85 0.92 0.96 0.96 0.94 0.96 0.93 0.93 0.88 0.81 0.75 0.76 0.76 0.60 0.57 0.57 0.59 0.29 0.22 0.22 0.19 0.12 0.11 0.11 0.09 0.05 0.03 0.00 0.00 0.00 0.00 0.00 0.00 0.00 0.00 0.00 0.00 0.00 0.00 0.00 0.00 0.00 0.00 0.00 0.00
-0.08 -0.07 -0.09 -0.11 -0.11 -0.17 -0.22 -0.22 -0.21 -0.21 -0.19 -0.07 -0.07 -0.07 -0.24 -0.03 -0.22 -0.22 -0.33 -0.30 -0.30 -0.10 0.11 -0.05 -0.05 -0.15 -0.13 -0.09 0.00 0.00 0.08 0.12 0.30 0.30 0.53 0.71 0.81 0.81 0.88 0.94 0.94 0.89 0.97 1.01 1.01 0.94 0.92 0.89 0.89 0.85 0.77 0.70 0.68 0.68 0.71 0.57 0.57 0.54 0.42 0.18 0.18 0.15 0.09 0.07 0.07 0.06 0.02 0.01 0.00 0.00 0.00 0.00 0.00 0.00 0.00 0.00 0.00 0.00 0.00 0.00 0.00 0.00 0.00 0.00 0.00 0.00
-0.07 -0.09 -0.09 -0.12 -0.12 -0.13 -0.18 -0.18 -0.23 -0.23 -0.23 -0.21 0.01 0.01 -0.03 -0.20 -0.21 -0.21 -0.35 -0.32 -0.32 -0.21 -0.09 0.11 0.11 -0.02 0.07 -0.07 -0.01 -0.01 0.04 0.06 0.20 0.20 0.45 0.61 0.78 0.78 0.85 0.83 0.83 0.94 0.87 0.81 0.81 0.97 0.91 0.86 0.86 0.84 0.76 0.67 0.64 0.64 0.69 0.54 0.54 0.48 0.36 0.21 0.21 0.15 0.09 0.06 0.06 0.04 0.01 0.00 0.00 0.00 0.00 0.00 0.00 0.00 0.00 0.00 0.00 0.00 0.00 0.00 0.00 0.00 0.00 0.00 0.00 0.00
-0.17 -0.19 -0.13 -0.13 -0.13 -0.12 -0.12 -0.13 -0.19 -0.19 -0.24 -0.20 -0.18 -0.18 -0.08 -0.01 -0.14 -0.14 -0.31 -0.33 -0.33 -0.24 -0.19 0.01 0.01 0.18 0.32 0.11 0.00 0.00 -0.02 -0.02 0.12 0.12 0.33 0.50 0.66 0.66 0.75 0.69 0.69 0.82 0.77 0.68 0.68 0.79 0.89 0.80 0.80 0.84 0.82 0.76 0.59 0.59 0.64 0.49 0.49 0.41 0.32 0.19 0.19 0.13 0.08 0.04 0.04 0.02 0.00 0.00 0.00 0.00 0.00 0.00 0.00 0.00 0.00 0.00 0.00 0.00 0.00 0.00 0.00 0.00 0.00 0.00 0.00 0.00
-0.22 -0.23 -0.22 -0.17 -0.17 -0.12 -0.13 -0.14 -0.15 -0.15 -0.17 -0.18 -0.21 -0.21 -0.21 -0.14 -0.22 -0.22 -0.19 -0.26 -0.26 -0.23 -0.20 -0.12 -0.12 0.21 0.35 0.41 0.10 0.10 0.02 0.02 0.01 0.01 0.08 0.23 0.40 0.40 0.49 0.50 0.50 0.58 0.61 0.53 0.53 0.65 0.72 0.70 0.70 0.77 0.77 0.71 0.64 0.64 0.56 0.46 0.46 0.43 0.34 0.31 0.31 0.19 0.12 0.04 0.04 0.01 0.00 0.00 0.00 0.00 0.00 0.00 0.00 0.00 0.00 0.00 0.00 0.00 0.00 0.00 0.00 0.00 0.00 0.00 0.00 0.00
-0.28 -0.33 -0.29 -0.23 -0.23 -0.16 -0.18 -0.16 -0.16 -0.16 -0.16 -0.18 -0.21 -0.21 -0.26 -0.29 -0.27 -0.27 -0.27 -0.23 -0.23 -0.22 -0.17 -0.16 -0.16 -0.12 0.24 0.43 0.39 0.39 0.08 0.07 0.06 0.06 0.10 0.24 0.34 0.34 0.37 0.30 0.30 0.33 0.41 0.32 0.32 0.35 0.59 0.56 0.56 0.63 0.70 0.59 0.53 0.53 0.49 0.35 0.35 0.34 0.29 0.29 0.29 0.20 0.11 0.08 0.08 0.04 0.02 0.00 0.00 0.00 0.00 0.00 0.00 0.00 0.00 0.00 0.00 0.00 0.00 0.00 0.00 0.00 0.00 0.00 0.00 0.00
-0.33 -0.40 -0.41 -0.31 -0.31 -0.25 -0.26 -0.22 -0.19 -0.19 -0.16 -0.17 -0.18 -0.18 -0.23 -0.26 -0.23 -0.23 -0.24 -0.21 -0.21 -0.18 -0.14 -0.11 -0.11 -0.08 0.07 0.18 0.32 0.32 0.50 0.25 0.10 0.10 0.13 0.31 0.35 0.35 0.33 0.38 0.38 0.33 0.35 0.36 0.36 0.31 0.35 0.38 0.38 0.44 0.50 0.43 0.43 0.43 0.42 0.27 0.27 0.27 0.29 0.24 0.24 0.17 0.09 0.06 0.06 0.04 0.01 0.01 0.00 0.00 0.00 0.00 0.00 0.00 0.00 0.00 0.00 0.00 0.00 0.00 0.00 0.00 0.00 0.00 0.00 0.00
-0.25 -0.28 -0.43 -0.45 -0.45 -0.34 -0.33 -0.26 -0.22 -0.22 -0.18 -0.20 -0.20 -0.20 -0.23 -0.21 -0.19 -0.19 -0.18 -0.17 -0.17 -0.16 -0.12 -0.09 -0.09 -0.04 -0.01 0.15 0.26 0.26 0.44 0.52 0.53 0.53 0.21 0.37 0.40 0.40 0.43 0.58 0.58 0.50 0.42 0.47 0.47 0.38 0.34 0.39 0.39 0.39 0.41 0.35 0.35 0.35 0.36 0.30 0.30 0.26 0.23 0.20 0.20 0.19 0.10 0.07 0.07 0.04 0.02 0.01 0.00 0.00 0.00 0.00 0.00 0.00 0.00 0.00 0.00 0.00 0.00 0.00 0.00 0.00 0.00 0.00 0.00 0.00
-0.21 -0.23 -0.31 -0.40 -0.40 -0.47 -0.41 -0.30 -0.23 -0.23 -0.20 -0.19 -0.20 -0.20 -0.24 -0.21 -0.19 -0.19 -0.16 -0.14 -0.14 -0.13 -0.11 -0.11 -0.11 -0.05 -0.03 0.07 0.17 0.17 0.33 0.39 0.64 0.64 0.61 0.77 0.58 0.58 0.50 0.66 0.66 0.65 0.63 0.64 0.64 0.56 0.41 0.42 0.42 0.37 0.36 0.32 0.31 0.31 0.30 0.27 0.27 0.25 0.23 0.17 0.17 0.14 0.07 0.05 0.05 0.03 0.01 0.01 0.00 0.00 0.00 0.00 0.00 0.00 0.00 0.00 0.00 0.00 0.00 0.00 0.00 0.00 0.00 0.00 0.00 0.00
-0.15 -0.16 -0.24 -0.33 -0.33 -0.44 -0.46 -0.45 -0.36 -0.36 -0.21 -0.20 -0.18 -0.18 -0.19 -0.18 -0.16 -0.16 -0.14 -0.12 -0.12 -0.11 -0.13 -0.13 -0.13 -0.12 -0.11 -0.07 0.06 0.06 0.16 0.20 0.48 0.48 0.74 0.81 0.78 0.78 0.69 0.82 0.82 0.74 0.69 0.72 0.72 0.59 0.52 0.49 0.49 0.42 0.36 0.30 0.29 0.29 0.28 0.24 0.24 0.22 0.20 0.14 0.14 0.10 0.05 0.03 0.03 0.02 0.00 0.00 0.00 0.00 0.00 0.00 0.00 0.00 0.00 0.00 0.00 0.00 0.00 0.00 0.00 0.00 0.00 0.00 0.00 0.00
-0.09 -0.11 -0.16 -0.25 -0.25 -0.36 -0.36 -0.40 -0.40 -0.40 -0.34 -0.36 -0.25 -0.25 -0.16 -0.15 -0.10 -0.10 -0.09 -0.10 -0.10 -0.11 -0.14 -0.15 -0.15 -0.13 -0.13 -0.12 -0.07 -0.07 0.01 0.04 0.10 0.10 0.25 0.32 0.70 0.70 0.75 0.78 0.78 0.82 0.79 0.78 0.78 0.66 0.57 0.50 0.50 0.38 0.31 0.24 0.24 0.24 0.24 0.20 0.20 0.20 0.18 0.13 0.13 0.10 0.04 0.03 0.03 0.01 0.00 0.00 0.00 0.00 0.00 0.00 0.00 0.00 0.00 0.00 0.00 0.00 0.00 0.00 0.00 0.00 0.00 0.00 0.00 0.00
-0.06 -0.09 -0.11 -0.19 -0.19 -0.29 -0.29 -0.34 -0.36 -0.36 -0.38 -0.34 -0.31 -0.31 -0.21 -0.15 -0.10 -0.10 -0.08 -0.07 -0.07 -0.10 -0.10 -0.12 -0.12 -0.13 -0.17 -0.17 -0.10 -0.10 -0.01 0.00 0.06 0.06 0.16 0.24 0.43 0.43 0.51 0.44 0.44 0.57 0.74 0.72 0.72 0.78 0.63 0.49 0.49 0.37 0.28 0.21 0.18 0.18 0.19 0.14 0.14 0.15 0.14 0.07 0.07 0.06 0.04 0.01 0.01 0.01 0.00 0.00 0.00 0.00 0.00 0.00 0.00 0.00 0.00 0.00 0.00 0.00 0.00 0.00 0.00 0.00 0.00 0.00 0.00 0.00
-0.08 -0.10 -0.10 -0.10 -0.10 -0.23 -0.24 -0.31 -0.34 -0.34 -0.33 -0.28 -0.25 -0.25 -0.21 -0.15 -0.10 -0.10 -0.08 -0.06 -0.06 -0.06 -0.07 -0.06 -0.06 -0.08 -0.20 -0.21 -0.16 -0.16 -0.13 -0.05 0.03 0.03 0.10 0.20 0.39 0.39 0.41 0.39 0.39 0.43 0.54 0.51 0.51 0.65 0.65 0.50 0.50 0.45 0.35 0.24 0.19 0.19 0.16 0.12 0.12 0.09 0.09 0.05 0.05 0.03 0.02 0.00 0.00 0.00 0.00 0.00 0.00 0.00 0.00 0.00 0.00 0.00 0.00 0.00 0.00 0.00 0.00 0.00 0.00 0.00 0.00 0.00 0.00 0.00
-0.15 -0.12 -0.11 -0.11 -0.11 -0.13 -0.13 -0.18 -0.27 -0.27 -0.29 -0.25 -0.22 -0.22 -0.17 -0.13 -0.14 -0.14 -0.09 -0.06 -0.06 -0.06 -0.06 -0.06 -0.06 -0.08 -0.17 -0.20 -0.21 -0.21 -0.19 -0.13 -0.08 -0.08 -0.03 0.17 0.41 0.41 0.44 0.42 0.42 0.38 0.38 0.35 0.35 0.45 0.51 0.38 0.38 0.38 0.32 0.23 0.19 0.19 0.15 0.11 0.11 0.08 0.06 0.05 0.05 0.03 0.02 0.01 0.01 0.00 0.00 0.00 0.00 0.00 0.00 0.00 0.00 0.00 0.00 0.00 0.00 0.00 0.00 0.00 0.00 0.00 0.00 0.00 0.00 0.00
-0.23 -0.16 -0.14 -0.12 -0.12 -0.12 -0.13 -0.15 -0.22 -0.22 -0.25 -0.23 -0.22 -0.22 -0.21 -0.18 -0.12 -0.12 -0.09 -0.07 -0.07 -0.09 -0.08 -0.10 -0.10 -0.14 -0.15 -0.18 -0.22 -0.22 -0.19 -0.13 -0.09 -0.09 -0.04 0.03 0.18 0.18 0.34 0.36 0.36 0.40 0.38 0.35 0.35 0.33 0.36 0.26 0.26 0.26 0.27 0.20 0.17 0.17 0.14 0.11 0.11 0.09 0.06 0.06 0.06 0.04 0.03 0.01 0.01 0.01 0.00 0.00 0.00 0.00 0.00 0.00 0.00 0.00 0.00 0.00 0.00 0.00 0.00 0.00 0.00 0.00 0.00 0.00 0.00 0.00
-0.29 -0.24 -0.16 -0.14 -0.14 -0.13 -0.16 -0.16 -0.18 -0.18 -0.22 -0.21 -0.20 -0.20 -0.18 -0.17 -0.17 -0.17 -0.15 -0.12 -0.12 -0.12 -0.12 -0.12 -0.12 -0.13 -0.11 -0.14 -0.19 -0.19 -0.16 -0.11 -0.06 -0.06 -0.03 0.06 0.22 0.22 0.32 0.32 0.32 0.35 0.39 0.38 0.38 0.34 0.32 0.26 0.26 0.21 0.20 0.14 0.14 0.14 0.14 0.09 0.09 0.09 0.09 0.05 0.05 0.04 0.03 0.01 0.01 0.00 0.00 0.00 0.00 0.00 0.00 0.00 0.00 0.00 0.00 0.00 0.00 0.00 0.00 0.00 0.00 0.00 0.00 0.00 0.00 0.00
-0.26 -0.30 -0.29 -0.18 -0.18 -0.17 -0.20 -0.20 -0.20 -0.20 -0.20 -0.20 -0.18 -0.18 -0.18 -0.18 -0.18 -0.18 -0.18 -0.15 -0.15 -0.10 -0.10 -0.11 -0.11 -0.11 -0.11 -0.12 -0.13 -0.13 -0.10 -0.07 -0.02 -0.02 0.01 0.09 0.27 0.27 0.31 0.29 0.29 0.35 0.39 0.37 0.37 0.32 0.29 0.20 0.20 0.16 0.14 0.07 0.08 0.08 0.09 0.05 0.05 0.05 0.05 0.01 0.01 0.01 0.01 0.00 0.00 0.00 0.00 0.00 0.00 0.00 0.00 0.00 0.00 0.00 0.00 0.00 0.00 0.00 0.00 0.00 0.00 0.00 0.00 0.00 0.00 0.00
-0.22 -0.27 -0.30 -0.28 -0.28 -0.27 -0.24 -0.22 -0.21 -0.21 -0.21 -0.19 -0.17 -0.17 -0.16 -0.17 -0.17 -0.17 -0.14 -0.11 -0.11 -0.09 -0.09 -0.08 -0.08 -0.09 -0.07 -0.08 -0.08 -0.08 -0.05 -0.05 -0.03 -0.03 0.01 0.07 0.10 0.10 0.25 0.25 0.25 0.24 0.32 0.31 0.31 0.29 0.23 0.15 0.15 0.12 0.09 0.05 0.05 0.05 0.05 0.04 0.04 0.03 0.02 0.00 0.00 0.00 0.00 0.00 0.00 0.00 0.00 0.00 0.00 0.00 0.00 0.00 0.00 0.00 0.00 0.00 0.00 0.00 0.00 0.00 0.00 0.00 0.00 0.00 0.00 0.00
-0.20 -0.25 -0.29 -0.30 -0.30 -0.30 -0.27 -0.24 -0.22 -0.22 -0.21 -0.21 -0.20 -0.20 -0.18 -0.16 -0.12 -0.12 -0.08 -0.08 -0.08 -0.10 -0.09 -0.06 -0.06 -0.06 -0.04 -0.03 -0.04 -0.04 -0.02 -0.00 0.01 0.01 0.02 0.07 0.12 0.12 0.21 0.20 0.20 0.21 0.24 0.23 0.23 0.21 0.17 0.12 0.12 0.11 0.10 0.06 0.05 0.05 0.04 0.03 0.03 0.02 0.02 0.00 0.00 0.00 0.00 0.00 0.00 0.00 0.00 0.00 0.00 0.00 0.00 0.00 0.00 0.00 0.00 0.00 0.00 0.00 0.00 0.00 0.00 0.00 0.00 0.00 0.00 0.00
-0.18 -0.23 -0.27 -0.30 -0.30 -0.31 -0.31 -0.30 -0.26 -0.26 -0.23 -0.26 -0.23 -0.23 -0.21 -0.22 -0.15 -0.15 -0.10 -0.07 -0.07 -0.09 -0.09 -0.08 -0.08 -0.06 -0.05 -0.02 -0.01 -0.01 0.03 0.03 0.03 0.03 0.04 0.09 0.12 0.12 0.16 0.19 0.19 0.20 0.21 0.22 0.22 0.19 0.15 0.12 0.12 0.11 0.08 0.05 0.04 0.04 0.03 0.02 0.02 0.01 0.01 0.00 0.00 0.00 0.00 0.00 0.00 0.00 0.00 0.00 0.00 0.00 0.00 0.00 0.00 0.00 0.00 0.00 0.00 0.00 0.00 0.00 0.00 0.00 0.00 0.00 0.00 0.00
-0.13 -0.15 -0.27 -0.29 -0.29 -0.32 -0.32 -0.31 -0.30 -0.30 -0.31 -0.30 -0.29 -0.29 -0.26 -0.26 -0.19 -0.19 -0.14 -0.10 -0.10 -0.11 -0.08 -0.07 -0.07 -0.06 -0.05 -0.05 -0.04 -0.04 -0.02 0.03 0.06 0.06 0.05 0.11 0.10 0.10 0.11 0.22 0.22 0.28 0.22 0.24 0.24 0.25 0.14 0.11 0.11 0.10 0.08 0.04 0.03 0.03 0.03 0.01 0.01 0.00 0.00 0.00 0.00 0.00 0.00 0.00 0.00 0.00 0.00 0.00 0.00 0.00 0.00 0.00 0.00 0.00 0.00 0.00 0.00 0.00 0.00 0.00 0.00 0.00 0.00 0.00 0.00 0.00
-0.07 -0.09 -0.10 -0.15 -0.15 -0.17 -0.28 -0.34 -0.33 -0.33 -0.33 -0.33 -0.33 -0.33 -0.31 -0.29 -0.28 -0.28 -0.26 -0.22 -0.22 -0.17 -0.11 -0.06 -0.06 -0.05 -0.05 -0.04 -0.02 -0.02 -0.00 0.02 0.12 0.12 0.23 0.27 0.19 0.19 0.15 0.13 0.13 0.17 0.17 0.12 0.12 0.09 0.10 0.09 0.09 0.08 0.07 0.04 0.02 0.02 0.02 0.00 0.00 0.00 0.00 0.00 0.00 0.00 0.00 0.00 0.00 0.00 0.00 0.00 0.00 0.00 0.00 0.00 0.00 0.00 0.00 0.00 0.00 0.00 0.00 0.00 0.00 0.00 0.00 0.00 0.00 0.00
-0.06 -0.08 -0.09 -0.11 -0.11 -0.13 -0.20 -0.31 -0.35 -0.35 -0.34 -0.32 -0.31 -0.31 -0.30 -0.29 -0.28 -0.28 -0.26 -0.23 -0.23 -0.19 -0.17 -0.14 -0.14 -0.10 -0.10 -0.07 -0.04 -0.04 -0.03 -0.03 0.02 0.02 0.12 0.16 0.22 0.22 0.17 0.11 0.11 0.09 0.11 0.07 0.07 0.08 0.08 0.08 0.08 0.07 0.05 0.04 0.02 0.02 0.01 0.00 0.00 0.00 0.00 0.00 0.00 0.00 0.00 0.00 0.00 0.00 0.00 0.00 0.00 0.00 0.00 0.00 0.00 0.00 0.00 0.00 0.00 0.00 0.00 0.00 0.00 0.00 0.00 0.00 0.00 0.00
-0.06 -0.07 -0.08 -0.10 -0.10 -0.10 -0.15 -0.24 -0.33 -0.33 -0.33 -0.34 -0.31 -0.31 -0.30 -0.28 -0.26 -0.26 -0.24 -0.21 -0.21 -0.17 -0.15 -0.14 -0.14 -0.12 -0.12 -0.09 -0.06 -0.06 -0.06 -0.05 -0.02 -0.02 0.07 0.07 0.13 0.13 0.15 0.09 0.09 0.07 0.07 0.06 0.06 0.06 0.07 0.07 0.07 0.08 0.07 0.04 0.02 0.02 0.02 0.01 0.01 0.01 0.00 0.00 0.00 0.00 0.00 0.00 0.00 0.00 0.00 0.00 0.00 0.00 0.00 0.00 0.00 0.00 0.00 0.00 0.00 0.00 0.00 0.00 0.00 0.00 0.00 0.00 0.00 0.00
-0.06 -0.06 -0.06 -0.07 -0.07 -0.07 -0.08 -0.11 -0.26 -0.26 -0.27 -0.33 -0.34 -0.34 -0.30 -0.25 -0.22 -0.22 -0.20 -0.18 -0.18 -0.16 -0.14 -0.13 -0.13 -0.12 -0.11 -0.11 -0.10 -0.10 -0.09 -0.06 -0.04 -0.04 0.02 0.03 0.06 0.06 0.09 0.06 0.06 0.06 0.06 0.05 0.05 0.06 0.06 0.07 0.07 0.07 0.07 0.05 0.03 0.03 0.02 0.02 0.02 0.02 0.00 0.00 0.00 0.00 0.00 0.00 0.00 0.00 0.00 0.00 0.00 0.00 0.00 0.00 0.00 0.00 0.00 0.00 0.00 0.00 0.00 0.00 0.00 0.00 0.00 0.00 0.00 0.00
-0.05 -0.05 -0.06 -0.06 -0.06 -0.06 -0.08 -0.09 -0.12 -0.12 -0.12 -0.18 -0.26 -0.26 -0.31 -0.29 -0.26 -0.26 -0.22 -0.20 -0.20 -0.19 -0.16 -0.14 -0.14 -0.11 -0.09 -0.09 -0.10 -0.10 -0.10 -0.07 -0.03 -0.03 0.00 0.02 0.02 0.02 0.04 0.02 0.02 0.04 0.05 0.05 0.05 0.05 0.06 0.06 0.06 0.05 0.06 0.06 0.06 0.06 0.04 0.03 0.03 0.04 0.03 0.01 0.01 0.00 0.00 0.00 0.00 0.00 0.00 0.00 0.00 0.00 0.00 0.00 0.00 0.00 0.00 0.00 0.00 0.00 0.00 0.00 0.00 0.00 0.00 0.00 0.00 0.00
-0.05 -0.05 -0.05 -0.05 -0.05 -0.05 -0.06 -0.07 -0.09 -0.09 -0.09 -0.13 -0.19 -0.19 -0.26 -0.25 -0.26 -0.26 -0.24 -0.22 -0.22 -0.19 -0.16 -0.13 -0.13 -0.11 -0.09 -0.07 -0.07 -0.07 -0.06 -0.06 -0.05 -0.05 -0.02 0.01 0.02 0.02 0.02 0.01 0.01 0.01 0.04 0.06 0.06 0.06 0.06 0.06 0.06 0.06 0.05 0.05 0.06 0.06 0.05 0.03 0.03 0.04 0.03 0.01 0.01 0.00 0.00 0.00 0.00 0.00 0.00 0.00 0.00 0.00 0.00 0.00 0.00 0.00 0.00 0.00 0.00 0.00 0.00 0.00 0.00 0.00 0.00 0.00 0.00 0.00
-0.04 -0.05 -0.04 -0.04 -0.04 -0.04 -0.05 -0.06 -0.07 -0.07 -0.07 -0.10 -0.14 -0.14 -0.20 -0.20 -0.22 -0.22 -0.23 -0.22 -0.22 -0.19 -0.17 -0.14 -0.14 -0.11 -0.08 -0.07 -0.06 -0.06 -0.04 -0.03 -0.03 -0.03 -0.02 0.00 0.01 0.01 0.03 0.02 0.02 0.02 0.04 0.06 0.06 0.06 0.07 0.07 0.07 0.07 0.06 0.05 0.06 0.06 0.06 0.05 0.05 0.04 0.03 0.01 0.01 0.00 0.00 0.00 0.00 0.00 0.00 0.00 0.00 0.00 0.00 0.00 0.00 0.00 0.00 0.00 0.00 0.00 0.00 0.00 0.00 0.00 0.00 0.00 0.00 0.00
-0.05 -0.05 -0.04 -0.04 -0.04 -0.04 -0.04 -0.05 -0.05 -0.05 -0.05 -0.07 -0.10 -0.10 -0.15 -0.14 -0.18 -0.18 -0.20 -0.20 -0.20 -0.18 -0.16 -0.14 -0.14 -0.11 -0.09 -0.07 -0.05 -0.05 -0.04 -0.02 -0.01 -0.01 -0.01 -0.00 0.00 0.00 0.01 0.02 0.02 0.02 0.04 0.07 0.07 0.08 0.08 0.08 0.08 0.07 0.07 0.07 0.09 0.09 0.07 0.06 0.06 0.04 0.04 0.02 0.02 0.00 0.00 0.00 0.00 0.00 0.00 0.00 0.00 0.00 0.00 0.00 0.00 0.00 0.00 0.00 0.00 0.00 0.00 0.00 0.00 0.00 0.00 0.00 0.00 0.00
-0.06 -0.06 -0.05 -0.05 -0.05 -0.05 -0.03 -0.03 -0.03 -0.03 -0.03 -0.04 -0.06 -0.06 -0.09 -0.11 -0.13 -0.13 -0.14 -0.17 -0.17 -0.15 -0.16 -0.15 -0.15 -0.13 -0.12 -0.09 -0.07 -0.07 -0.05 -0.03 -0.02 -0.02 -0.01 -0.01 -0.00 -0.00 0.00 0.01 0.01 0.02 0.02 0.04 0.04 0.06 0.08 0.08 0.08 0.07 0.07 0.08 0.08 0.08 0.07 0.05 0.05 0.03 0.03 0.02 0.02 0.01 0.00 0.00 0.00 0.00 0.00 0.00 0.00 0.00 0.00 0.00 0.00 0.00 0.00 0.00 0.00 0.00 0.00 0.00 0.00 0.00 0.00 0.01 0.01 0.00
-0.07 -0.07 -0.06 -0.06 -0.06 -0.06 -0.05 -0.03 -0.02 -0.02 -0.02 -0.03 -0.05 -0.05 -0.08 -0.09 -0.11 -0.11 -0.11 -0.13 -0.13 -0.13 -0.15 -0.15 -0.15 -0.14 -0.13 -0.10 -0.08 -0.08 -0.06 -0.03 -0.02 -0.02 -0.01 0.00 0.00 0.00 0.00 0.01 0.01 0.02 0.03 0.04 0.04 0.05 0.07 0.09 0.09 0.08 0.08 0.08 0.08 0.08 0.06 0.04 0.04 0.03 0.03 0.03 0.03 0.00 0.00 0.00 0.00 0.00 0.00 0.00 0.00 0.00 0.00 0.00 0.00 0.00 0.00 0.00 0.00 0.00 0.00 0.00 0.00 0.00 0.01 0.01 0.01 0.01
-0.08 -0.08 -0.07 -0.08 -0.08 -0.07 -0.08 -0.06 -0.03 -0.03 -0.03 -0.04 -0.05 -0.05 -0.07 -0.07 -0.08 -0.08 -0.09 -0.11 -0.11 -0.10 -0.13 -0.16 -0.16 -0.16 -0.16 -0.12 -0.09 -0.09 -0.07 -0.04 -0.02 -0.02 -0.01 0.01 0.01 0.01 0.01 0.02 0.02 0.02 0.03 0.04 0.04 0.05 0.06 0.08 0.08 0.09 0.09 0.09 0.11 0.11 0.10 0.06 0.06 0.04 0.04 0.03 0.03 0.01 0.00 0.00 0.00 0.00 0.00 0.00 0.00 0.00 0.00 0.00 0.00 0.00 0.00 0.00 0.00 0.00 0.00 0.01 0.01 0.01 0.01 0.01 0.01 0.01
-0.09 -0.09 -0.09 -0.10 -0.10 -0.08 -0.09 -0.09 -0.05 -0.05 -0.05 -0.05 -0.05 -0.05 -0.05 -0.05 -0.06 -0.06 -0.07 -0.09 -0.09 -0.07 -0.09 -0.09 -0.09 -0.13 -0.14 -0.18 -0.14 -0.14 -0.12 -0.08 -0.05 -0.05 -0.02 -0.00 0.01 0.01 0.02 0.02 0.02 0.02 0.03 0.04 0.04 0.05 0.05 0.05 0.05 0.07 0.09 0.09 0.11 0.11 0.11 0.07 0.07 0.06 0.04 0.02 0.02 0.00 0.00 0.00 0.00 0.00 0.00 0.00 0.00 0.00 0.00 0.00 0.00 0.00 0.00 0.00 0.00 0.00 0.00 0.00 0.00 0.01 0.01 0.01 0.01 0.01
-0.10 -0.09 -0.09 -0.12 -0.12 -0.11 -0.09 -0.08 -0.10 -0.10 -0.09 -0.06 -0.05 -0.05 -0.05 -0.05 -0.04 -0.04 -0.05 -0.06 -0.06 -0.04 -0.05 -0.06 -0.06 -0.09 -0.12 -0.17 -0.16 -0.16 -0.14 -0.10 -0.05 -0.05 -0.02 -0.00 0.01 0.01 0.02 0.03 0.03 0.03 0.03 0.04 0.04 0.06 0.05 0.05 0.05 0.07 0.08 0.09 0.11 0.11 0.10 0.08 0.08 0.07 0.03 0.01 0.01 0.00 0.00 0.00 0.00 0.00 0.00 0.00 0.00 0.00 0.00 0.00 0.00 0.00 0.00 0.00 0.00 0.00 0.00 0.00 0.00 0.01 0.01 0.01 0.01 0.01
-0.12 -0.11 -0.11 -0.13 -0.13 -0.11 -0.09 -0.07 -0.07 -0.07 -0.09 -0.07 -0.06 -0.06 -0.06 -0.06 -0.04 -0.04 -0.04 -0.05 -0.05 -0.04 -0.04 -0.04 -0.04 -0.07 -0.10 -0.16 -0.16 -0.16 -0.15 -0.11 -0.06 -0.06 -0.02 0.00 0.02 0.02 0.02 0.03 0.03 0.03 0.04 0.05 0.05 0.06 0.07 0.07 0.07 0.07 0.07 0.07 0.08 0.08 0.10 0.10 0.10 0.08 0.06 0.03 0.03 0.01 0.00 0.00 0.00 0.00 0.00 0.00 0.00 0.00 0.00 0.00 0.00 0.00 0.00 0.00 0.00 0.00 0.00 0.01 0.01 0.01 0.01 0.01 0.01 0.01
-0.16 -0.14 -0.13 -0.12 -0.12 -0.11 -0.09 -0.07 -0.07 -0.07 -0.09 -0.09 -0.06 -0.06 -0.06 -0.07 -0.05 -0.05 -0.04 -0.04 -0.04 -0.03 -0.03 -0.03 -0.03 -0.05 -0.08 -0.13 -0.15 -0.15 -0.14 -0.12 -0.07 -0.07 -0.07 -0.04 -0.00 -0.00 0.02 0.03 0.03 0.03 0.04 0.05 0.05 0.05 0.06 0.08 0.08 0.07 0.08 0.07 0.09 0.09 0.08 0.09 0.09 0.09 0.05 0.03 0.03 0.01 0.00 0.00 0.00 0.00 0.00 0.00 0.00 0.00 0.00 0.00 0.00 0.00 0.00 0.01 0.01 0.01 0.01 0.01 0.01 0.02 0.02 0.02 0.02 0.01
-0.22 -0.18 -0.14 -0.13 -0.13 -0.12 -0.12 -0.09 -0.07 -0.07 -0.10 -0.10 -0.07 -0.07 -0.07 -0.07 -0.08 -0.08 -0.07 -0.04 -0.04 -0.04 -0.03 -0.03 -0.03 -0.04 -0.04 -0.06 -0.10 -0.10 -0.11 -0.12 -0.10 -0.10 -0.07 -0.03 -0.00 -0.00 0.02 0.04 0.04 0.04 0.05 0.05 0.05 0.06 0.07 0.07 0.07 0.07 0.08 0.09 0.10 0.10 0.08 0.08 0.08 0.08 0.04 0.04 0.04 0.01 0.01 0.00 0.00 0.00 0.00 0.00 0.00 0.00 0.00 0.00 0.00 0.00 0.00 0.01 0.01 0.01 0.01 0.02 0.02 0.03 0.03 0.03 0.03 0.02
-0.25 -0.27 -0.24 -0.24 -0.24 -0.15 -0.13 -0.12 -0.10 -0.10 -0.09 -0.09 -0.10 -0.10 -0.08 -0.07 -0.08 -0.08 -0.08 -0.06 -0.06 -0.05 -0.04 -0.04 -0.04 -0.04 -0.05 -0.06 -0.08 -0.08 -0.08 -0.09 -0.08 -0.08 -0.06 -0.01 0.01 0.01 0.02 0.04 0.04 0.06 0.06 0.06 0.06 0.07 0.08 0.07 0.07 0.09 0.09 0.09 0.12 0.12 0.11 0.09 0.09 0.07 0.05 0.03 0.03 0.01 0.01 0.00 0.00 0.00 0.00 0.00 0.00 0.00 0.00 0.00 0.00 0.00 0.01 0.01 0.01 0.01 0.01 0.03 0.03 0.03 0.03 0.02 0.02 0.02
-0.29 -0.32 -0.32 -0.31 -0.31 -0.20 -0.13 -0.10 -0.10 -0.10 -0.10 -0.09 -0.10 -0.10 -0.10 -0.08 -0.08 -0.08 -0.09 -0.07 -0.07 -0.06 -0.06 -0.05 -0.05 -0.05 -0.05 -0.06 -0.07 -0.07 -0.08 -0.07 -0.06 -0.06 -0.05 -0.01 0.02 0.02 0.02 0.05 0.05 0.05 0.06 0.07 0.07 0.08 0.08 0.08 0.08 0.09 0.10 0.12 0.14 0.14 0.10 0.08 0.08 0.05 0.03 0.02 0.02 0.01 0.01 0.00 0.00 0.00 0.00 0.00 0.00 0.00 0.00 0.00 0.00 0.00 0.01 0.01 0.02 0.02 0.02 0.04 0.04 0.04 0.03 0.02 0.02 0.02
-0.31 -0.35 -0.37 -0.35 -0.35 -0.28 -0.17 -0.11 -0.10 -0.10 -0.10 -0.09 -0.09 -0.09 -0.10 -0.08 -0.08 -0.08 -0.09 -0.08 -0.08 -0.07 -0.07 -0.05 -0.05 -0.05 -0.05 -0.05 -0.05 -0.05 -0.05 -0.08 -0.08 -0.08 -0.06 -0.04 0.00 0.00 0.04 0.07 0.07 0.07 0.07 0.08 0.08 0.10 0.09 0.09 0.09 0.10 0.10 0.13 0.13 0.13 0.10 0.07 0.07 0.03 0.03 0.02 0.02 0.01 0.00 0.00 0.00 0.00 0.00 0.00 0.00 0.00 0.00 0.00 0.00 0.00 0.01 0.02 0.02 0.02 0.03 0.05 0.05 0.05 0.05 0.02 0.02 0.02
-0.32 -0.35 -0.38 -0.36 -0.36 -0.35 -0.24 -0.13 -0.14 -0.14 -0.12 -0.10 -0.09 -0.09 -0.10 -0.09 -0.08 -0.08 -0.08 -0.07 -0.07 -0.08 -0.08 -0.07 -0.07 -0.06 -0.05 -0.05 -0.05 -0.05 -0.04 -0.06 -0.08 -0.08 -0.07 -0.04 0.01 0.01 0.05 0.07 0.07 0.09 0.09 0.09 0.09 0.11 0.13 0.13 0.13 0.14 0.14 0.11 0.12 0.12 0.12 0.09 0.09 0.03 0.02 0.01 0.01 0.00 0.00 0.00 0.00 0.00 0.00 0.00 0.00 0.00 0.00 0.00 0.01 0.01 0.01 0.01 0.03 0.03 0.03 0.06 0.06 0.06 0.04 0.02 0.02 0.02